Starlink 31805

operational
NORAD ID: 59745 Int'l Des: 2024-090 Owner: SPXS Country: US Constellation: starlink
LEOCIRCULAR

About Starlink 31805

Description loading...

Live Position

Loading 3D Globe...

Upcoming Passes

Altitude History

Altitude vs Time

uPlot chart will show altitude changes over time

Two-Line Element Set

1 59745U 24090R 25303.76253288 -.00002036 00000-0 -64458-4 0 9993
2 59745 43.0034 196.9012 0001291 286.0554 74.0156 15.27586272 83578
Epoch: Oct 30, 2025 • Age: 24 hours

Current Status

Altitude 483.2 km
Velocity 7.63 km/s
Sub-Earth Point -0.49°S, 51.98°E
Launch Date May 13, 2024
Age 1.4 years
Type internet

Technical Details

Classification Payload
Mass 730.00 kg
Dry Mass 700.00 kg
Total Mass 730.00 kg
Length 0.30 m
Diameter 4.10 m
Span 29.00 m
Shape Box + pan
Manufacturer SPXS
Bus Type Starlink V2M
Phase Status In Orbit
Owner/State SPXS/US

Large Constellations

Loading constellations...